Location: Bakov nad Jizerou
(50.4784°N, 14.9394°E)
Time: 17:27:07
(UTC+00:00)

Cosmos 2322 - Pass Details

Date: 25 October 2021
Orbit: 841 x 854 km, 71.0° (Epoch: 04 December)

Event Time Altitude Azimuth Distance (km) Brightness Sun altitude
Exits shadow 01:54:02 14° 354° (N) 2,240 6.1 -35.7°
Maximum altitude 01:57:37 23° 39° (NE) 1,724 5.8 -35.2°
Drops below altitude 10° 02:02:06 10° 91° (E) 2,475 6.8 -34.5°
Sets 02:05:04 0° 106° (ESE) 3,405 7.5 -34.1°
